FW1468 Weather Reports


time (UTC)temp
C
wind
direction
speed
KPH
gust
KPH
rain 1hr
cm
rain 24hr
cm
rain mn
cm
humidity
%
barometer
mb
20260506160034 17 160 1.6 3.2 0.13 0.13 0.13 90 1006.2
20260506154535 17 171 0.0 3.2 0.08 0.08 0.08 88 1006.1
20260506153032 17 158 1.6 6.4 0.03 0.03 0.03 86 1006.3
20260506151536 18 165 1.6 6.4 0.00 0.00 0.00 83 1006.4
20260506150026 18 163 3.2 9.7 0.00 0.00 0.00 81 1006.4
20260506144623 18 177 1.6 9.7 0.00 0.00 0.00 80 1006.4
20260506143026 18 135 3.2 12.9 0.00 0.00 0.00 77 1006.6
20260506141521 18 144 3.2 14.5 0.00 0.00 0.00 77 1006.8
20260506140029 18 167 1.6 11.3 0.00 0.00 0.00 78 1006.8
20260506134518 18 173 3.2 9.7 0.00 0.00 0.00 77 1006.5
20260506133017 18 146 4.8 14.5 0.00 0.00 0.00 79 1006.4
20260506131520 18 185 0.0 6.4 0.00 0.00 0.00 79 1006.2
20260506130017 18 154 1.6 8.0 0.00 0.00 0.00 80 1006.2
20260506124514 18 142 3.2 8.0 0.00 0.00 0.00 80 1006.4
20260506123013 17 153 3.2 9.7 0.00 0.00 0.00 80 1006.5
20260506121512 17 143 4.8 11.3 0.00 0.00 0.00 81 1006.7
20260506120013 17 157 3.2 6.4 0.00 0.00 0.00 81 1006.9
20260506114508 17 123 3.2 9.7 0.00 0.00 0.00 81 1006.6
20260506113004 -17 0.0 0.0 0.00 0.00 0.00 1006.7
20260506111602 -17 0.0 0.0 0.00 0.00 0.00 1006.5
20260506110103 -17 0.0 0.0 0.00 0.00 0.00 1006.6
20260506104521 -17 0.0 0.0 0.00 0.00 0.00 1006.6
20260506103018 -17 0.0 0.0 0.00 0.00 0.00 1006.3
20260506101510 -17 0.0 0.0 0.00 0.00 0.00 1006.4
20260506100008 -17 0.0 0.0 0.00 0.00 0.00 1006.2
20260506094504 -17 0.0 0.0 0.00 0.00 0.00 1006.4
20260506093101 -17 0.0 0.0 0.00 0.00 0.00 1006.2
20260506091552 -17 0.0 0.0 0.00 0.00 0.00 1006.2
20260506090100 -17 0.0 0.0 0.00 0.00 0.00 1006.3
20260506084550 -17 0.0 0.0 0.00 0.00 0.00 1006.2
20260506083138 -17 0.0 0.0 0.00 0.00 0.00 1006.4
20260506081504 -17 0.0 0.0 0.00 0.00 0.00 1006.4
20260506073050 -17 0.0 0.0 0.00 0.00 0.00 1006.4
20260506071547 -17 0.0 0.0 0.00 0.00 0.00 1006.4
20260506061534 17 173 0.0 0.0 0.00 0.00 0.00 68 1006.9
20260506050104 19 172 0.0 4.8 0.00 0.00 0.00 63 1007.1
20260506044546 19 172 1.6 4.8 0.00 0.00 0.00 62 1007.2
20260506043042 19 175 1.6 8.0 0.00 0.00 0.00 61 1007.2
20260506041556 19 168 3.2 6.4 0.00 0.00 0.00 62 1007.2
20260506040039 20 161 0.0 4.8 0.00 0.00 0.00 60 1007.2
20260506034547 20 158 1.6 6.4 0.00 0.00 0.00 58 1007.0
20260506033031 21 158 6.4 11.3 0.00 0.00 0.00 54 1007.0
20260506031532 22 130 3.2 8.0 0.00 0.00 0.00 49 1006.9
20260506030029 23 175 3.2 12.9 0.00 0.00 0.00 47 1006.9
20260506024530 23 143 3.2 9.7 0.00 0.00 0.00 46 1006.7
20260506023027 23 149 6.4 11.3 0.00 0.00 0.00 45 1006.6
20260506020025 23 168 1.6 8.0 0.00 0.00 0.00 42 1006.5
20260506014524 23 171 1.6 11.3 0.00 0.00 0.00 41 1006.4
20260506013036 23 156 3.2 9.7 0.00 0.00 0.00 41 1006.3
20260506011526 23 178 1.6 8.0 0.00 0.00 0.00 41 1006.1
20260506010025 23 177 3.2 12.9 0.00 0.00 0.00 41 1006.0
20260506004521 23 149 1.6 6.4 0.00 0.00 0.00 40 1005.8
20260506003021 24 167 3.2 12.9 0.00 0.00 0.00 41 1005.6
20260506001520 24 173 0.0 8.0 0.00 0.00 0.00 40 1005.5
20260506000057 24 157 1.6 9.7 0.00 0.00 0.00 40 1005.4
20260505234549 24 175 1.6 6.4 0.00 0.00 0.00 40 1005.2
20260505233052 25 144 0.0 9.7 0.00 0.00 0.00 39 1005.0
20260505231548 25 132 1.6 9.7 0.00 0.00 0.00 38 1004.8
20260505230111 25 173 0.0 9.7 0.00 0.00 0.00 38 1004.7
20260505224545 25 168 0.0 11.3 0.00 0.00 0.00 37 1004.3
20260505223044 26 174 6.4 12.9 0.00 0.00 0.00 36 1004.2
20260505221545 26 158 3.2 19.3 0.00 0.00 0.00 37 1004.0
20260505220051 26 164 6.4 17.7 0.00 0.00 0.00 36 1003.9
20260505214540 26 150 4.8 17.7 0.00 0.00 0.00 36 1003.8
20260505213038 27 142 6.4 14.5 0.00 0.00 0.00 37 1003.8
20260505211542 27 11 6.4 17.7 0.00 0.00 0.00 35 1003.8
20260505210036 27 163 6.4 17.7 0.00 0.00 0.00 36 1003.6
20260505204532 28 154 9.7 22.5 0.00 0.00 0.00 34 1003.5
20260505203031 28 198 1.6 14.5 0.00 0.00 0.00 36 1003.6
20260505201529 27 215 9.7 19.3 0.00 0.00 0.00 35 1003.7
20260505200034 28 178 3.2 25.7 0.00 0.00 0.00 38 1004.1
20260505194523 28 75 1.6 9.7 0.00 0.00 0.00 36 1004.1
20260505193021 28 207 1.6 14.5 0.00 0.00 0.00 34 1004.3
20260505191526 28 220 3.2 14.5 0.00 0.00 0.00 36 1004.4
20260505190146 28 71 6.4 16.1 0.00 0.00 0.00 34 1004.6
20260505184546 28 102 8.0 14.5 0.00 0.00 0.00 35 1004.7
20260505183042 28 188 1.6 14.5 0.00 0.00 0.00 37 1005.0
20260505181543 28 132 6.4 17.7 0.00 0.00 0.00 36 1005.2
20260505180033 28 270 3.2 14.5 0.00 0.00 0.00 39 1005.2
20260505174530 27 77 4.8 17.7 0.00 0.00 0.00 41 1005.5
20260505173026 27 162 6.4 17.7 0.00 0.00 0.00 42 1005.6
20260505171523 27 159 6.4 24.1 0.00 0.00 0.00 42 1005.7
20260505170027 27 168 6.4 20.9 0.00 0.00 0.00 44 1005.8
20260505164518 26 140 9.7 19.3 0.00 0.00 0.00 42 1006.0
20260505163016 26 133 3.2 22.5 0.00 0.00 0.00 44 1006.3
20260505161528 26 174 4.8 17.7 0.00 0.00 0.00 46 1006.7